Location: Olsztyn
(53.7767°N, 20.4765°E)
Time: 07:36:06
(UTC+02:00)

Vanguard 2 Rocket - Visible Passes

Search period start: 24 May 2025 00:00
Search period end: 03 June 2025 00:00
Orbit: 554 x 3293 km, 32.9° (Epoch: 23 May)

Date Brightness Start Highest point End Pass type
(mag) Time Alt. Az. Time Alt. Az. Time Alt. Az.
24 May 9.3 00:50:22 10° WSW 01:03:46 30° S 01:13:02 10° SE visible
24 May 9.3 03:07:59 10° WSW 03:15:52 18° SSW 03:21:50 10° S visible
24 May 9.9 21:30:52 10° SSW 21:45:07 26° SSE 21:56:48 10° ESE visible
24 May 9.5 23:44:10 10° SW 23:59:05 32° S 00:09:47 10° SE visible
25 May 9.3 02:00:43 10° WSW 02:12:02 24° SSW 02:20:03 10° SSE visible
25 May 9.7 22:38:27 10° SW 22:54:05 32° S 23:06:01 10° ESE visible
26 May 9.4 00:53:55 10° WSW 01:07:45 30° SSW 01:17:28 10° SE visible
26 May 9.5 03:12:33 10° WSW 03:19:41 16° SW 03:25:18 10° S visible
26 May 9.9 21:33:21 10° SW 21:48:54 30° SSE 22:01:44 10° ESE visible
26 May 9.5 23:47:31 10° WSW 00:03:02 33° S 00:14:18 10° SE visible
27 May 9.5 02:04:43 10° WSW 02:15:53 23° SSW 02:24:01 10° SSE visible
27 May 9.7 22:41:36 10° SW 22:57:57 35° S 23:10:37 10° ESE visible
28 May 9.5 00:57:39 10° WSW 01:11:37 29° SSW 01:21:40 10° SSE visible
28 May 9.7 03:17:46 10° WSW 03:23:19 13° SW 03:27:59 10° SSW visible
28 May 9.9 21:36:17 10° SW 21:52:38 34° SSE 22:06:24 10° ESE visible
28 May 9.6 23:51:05 10° WSW 00:06:52 33° SSW 00:18:38 10° SE visible
29 May 9.7 02:08:59 10° WSW 02:19:33 20° SW 02:27:37 10° S visible
29 May 9.7 22:45:01 10° WSW 23:01:44 36° S 23:15:00 10° SE visible
30 May 9.7 01:01:34 10° WSW 01:15:20 27° SSW 01:25:36 10° SSE visible
30 May 9.9 03:25:31 10° SW 03:26:46 10° SW 03:27:58 10° SW visible
30 May 9.9 21:39:33 10° SW 21:56:20 36° S 22:10:49 10° ESE visible
30 May 9.7 23:54:49 10° WSW 00:10:36 32° SSW 00:22:43 10° SE visible
31 May 9.9 02:13:39 10° WSW 02:23:04 17° SW 02:30:39 10° S visible
31 May 9.8 22:48:39 10° WSW 23:05:27 36° S 23:19:12 10° SE visible
01 Jun 9.8 01:05:43 10° WSW 01:18:54 24° SSW 01:29:10 10° SSE visible
01 Jun 9.9 21:43:05 10° WSW 22:00:00 37° S 22:15:04 10° ESE visible
01 Jun 9.8 23:58:46 10° WSW 00:14:13 30° SSW 00:26:24 10° SSE visible
02 Jun 9.9 02:19:03 10° WSW 02:26:27 14° SW 02:31:38 11° SSW visible
02 Jun 9.9 22:52:29 10° WSW 23:09:06 35° SSW 23:23:09 10° SE visible
